User: anonymous   Login
Location: Unspecified
(0.0000°N, 0.0000°E)
Time: 15:34:11
(UTC+02:00)
Language:

Cosmos 2219 Rocket - Orbit

View from above orbital plane
View from above orbital plane
View from above satellite
View from above satellite

Ground track
Ground track

The orbit data is extracted from the following two-line orbital elements,

1 22220U 92076B   16273.16769909 -.00000261  00000-0 -10725-3 0  9997
2 22220  70.9989 248.6740 0014877 304.6723 130.9621 14.16403761233817
Epoch (UTC): 29 September 2016 04:01:29
Eccentricity: 0.0014877
inclination: 70.9989°
perigee height: 827 km
apogee height: 848 km
right ascension of ascending node: 248.6740°
argument of perigee: 304.6723°
revolutions per day: 14.16403761
mean anomaly at epoch: 130.9621°
orbit number at epoch: 23381

The dashed part of the orbit path shows where the satellite is in the earth's shadow,  

DLR